Regional Weather Roundup
Issued by NWS Upton, NY

Current Version | Previous Version | Graphics & Text | Print | Product List | Glossary Off
Versions: 1 2 3 4 5 6 7 8 9 10 11 12 13 14 15 16 17 18 19 20 21 22 23 24 25 26 27

000
ASUS41 KOKX 242205
RWROKX

REGIONAL WEATHER ROUNDUP
NATIONAL WEATHER SERVICE NEW YORK NY
600 PM EDT FRI OCT 24 2014

NOTE: "FAIR" INDICATES FEW OR NO CLOUDS BELOW 12,000 FEET WITH NO
SIGNIFICANT WEATHER AND/OR OBSTRUCTIONS TO VISIBILITY.

NYZ071-072-176-178-NJZ106-104-242300-
NEW YORK CITY METRO AREA


CITY           SKY/WX    TMP DP  RH WIND       PRES   REMARKS
CENTRAL PARK   CLEAR     58  45  62 E3        29.79S
LAGUARDIA APRT MOCLDY    59  46  62 E7        29.77S
KENNEDY INTL   MOCLDY    59  45  59 NE7       29.78S
NEWARK/LIBERTY MOCLDY    64  46  52 NE5       29.77R
BRNX BOT. GARD   N/A     57  45  62 NE2       29.79F
TETERBORO      CLEAR     60  46  59 NE5       29.76R
$$

NYZ177-179-078>081-242300-
LONG ISLAND NEW YORK

CITY           SKY/WX    TMP DP  RH WIND       PRES   REMARKS
FARMINGDALE    CLOUDY    57  45  64 N8        29.78S
ISLIP          MOCLDY    56  45  66 N7        29.76S
SHIRLEY        CLOUDY    54  45  71 NW7       29.78S
WESTHAMPTON    MOCLDY    53  43  68 NW6       29.78R
MONTAUK POINT    N/A     55  44  66 NW12      29.76R
$$

NYZ052-065-067-242300-
HUDSON VALLEY

CITY           SKY/WX    TMP DP  RH WIND       PRES   REMARKS
WHITE PLAINS   MOCLDY    56  44  64 N5        29.77S
NEWBURGH       MOCLDY    55  48  76 VRB5      29.79S
MONTGOMERY     PTCLDY    57  45  64 NE3       29.77R
POUGHKEEPSIE   CLOUDY    56  46  69 CALM      29.78S
ALBANY         CLOUDY    48  44  86 NE6       29.82S
$$

NJZ001-105-106-008-010-013-015-019>022-104-242300-
NEW JERSEY

CITY           SKY/WX    TMP DP  RH WIND       PRES   REMARKS
NEWARK/LIBERTY MOCLDY    64  46  52 NE5       29.77R
TETERBORO      CLEAR     60  46  59 NE5       29.76R
CALDWELL       PTCLDY    64  40  41 NW6       29.77S
MORRISTOWN     PTCLDY    64  43  45 N10       29.87R
SOMERVILLE     CLEAR     65  42  43 NW6       29.77R
SUSSEX         CLEAR     66  39  37 NW7       29.80R
ANDOVER          N/A     62  41  46 NW6       29.80R
TRENTON        PTCLDY    65  41  41 NW6       29.79R
MILLVILLE      MOCLDY    62  46  55 W8        29.83R
ATLANTIC CITY  MOCLDY    63  47  55 W9        29.81R
WRIGHTSTOWN    PTCLDY    63  44  48 W9        29.78R
TOMS RIVER     CLEAR     61  46  59 W3        29.79R
BELMAR         CLOUDY    64  45  48 NW6       29.78R
$$

PAZ047>061-062-071-242300-
EASTERN PENNSYLVANIA

CITY           SKY/WX    TMP DP  RH WIND       PRES   REMARKS
PHILADELPHIA   MOCLDY    67  43  41 W10       29.82R
ALLENTOWN      PTCLDY    64  41  42 NW13G18   29.82R
SCRANTON       CLEAR     61  41  47 N10       29.85S
$$

CTZ002-004>006-009-010-012-RIZ004-006-007-MAZ004-011-015-242300-
SOUTHERN NEW ENGLAND
 IN CT

CITY           SKY/WX    TMP DP  RH WIND       PRES   REMARKS
BRADLEY INTL   CLOUDY    53  41  63 N10G18    29.76R
HARTFORD       CLOUDY    53  42  66 N8        29.77R
DANBURY        CLOUDY    54  42  64 VRB5      29.79R
WTRBRY/OXFORD  CLOUDY    52  41  66 N9        29.78R
BRIDGEPORT     CLOUDY    56  45  66 NW5       29.78R
MERIDEN        CLOUDY    53  43  68 NW7       29.77R
NEW HAVEN      CLOUDY    57  44  62 N8        29.77R
CHESTER        MOCLDY    52  43  71 N9G16     29.77R
GROTON         CLOUDY    52  43  71 NW10      29.75R
WILLIMANTIC    CLOUDY    53  41  63 NW8G18    29.75R

 IN RI

CITY           SKY/WX    TMP DP  RH WIND       PRES   REMARKS
PROVIDENCE     CLOUDY    53  43  68 NW6       29.73S
BLOCK ISLAND   CLOUDY    54  43  66 NW12G18   29.73S
WESTERLY       CLOUDY    53  43  68 VRB3      29.74S

 IN MA

CITY           SKY/WX    TMP DP  RH WIND       PRES   REMARKS
BOSTON         CLOUDY    50  43  77 NW7       29.71R
WORCESTER      CLOUDY    46  40  79 NW16      29.73R
WESTFIELD      CLOUDY    52  41  66 NW12      29.76R
PROVINCETOWN   CLOUDY    52   0  11 NW13      29.70R
NANTUCKET      CLOUDY    52  49  89 N9        29.69S
$$

ANZ330-335-338-340-345-350-353-355-242300-
COASTAL MARINE OBSERVATIONS


STATION/POSITION TIME  SKY/WX   TEMP    WIND        PRES    VSBY  WAVE
                                AIR SEA DIR/SP/G                  HT/PER
                 (UTC)          (F)     (DEG/KT/KT) (MB)    (MI)  (FT/S)
NY HARB ENTRANCE NOT AVBL
4S FIRE IS       2200               63                N/A           2/10
20S FIRE ISLAND  2200            59 63  350/ 14/ 16 1008.0          3/ 9
23SW MTP         2200                                 N/A           4/ 5
HUDSON CANYON    2200            59 65  330/ 17/ 21 1007.8          6/ 6
EXECUTION ROCKS  2200            60 62   40/  8/ 10   N/A
WESTERN LI SOUND 2200            58      20/  6/ 10   N/A           0
CENTRAL LI SOUND 2100            55 63  320/ 16/ 21   N/A           3/ 4
EASTERN LI SOUND 2100            56 63  320/ 14/ 17   N/A
ROBBINS REEF     2200            63      40/  7/  8 1006.8
$$


>>>>>>>>>>>>>>>>>>>>>>>>>>>> KEY <<<<<<<<<<<<<<<<<<<<<<<<<<<
>                                                          <
>     SKY/WX - SKY CONDITION/PRESENT WEATHER               <
>     TMP    - TEMPERATURE IN FAHRENHEIT                   <
>     DP     - DEWPOINT IN FAHRENHEIT                      <
>     RH     - RELATIVE HUMIDITY IN PERCENT                <
>     WIND   - DIRECTION AND SPEED IN MPH                  <
>     PRES   - MEAN SEA LEVEL PRESSURE IN INCHES OF HG     <
>     WCI    - WIND CHILL INDEX                            <
>     VSB    - VISIBILITY IN MILES                         <
>     HX     - HEAT INDEX                                  <
>     TC     - TEMPERATURE IN CELSIUS                      <
>     VRB    - VARIABLE WIND DIRECTION                     <
>                                                          <
>>>>>>>>>>>>>>>>>>>>>>>>>>>> KEY <<<<<<<<<<<<<<<<<<<<<<<<<<<





USA.gov is the U.S. government's official web portal to all federal, state and local government web resources and services.